Weather History for Warrenton, VA

Change the Weather History Date:

Monday, October 29, 2012

  Actual Average (KHEF) Record (KHEF)
Temperature  
Mean Temperature 50 °F -  
Max Temperature 54 °F 61 °F 71 °F (1999)
Min Temperature 46 °F 36 °F 23 °F (2001)
Degree Days  
Heating Degree Days 15    
Moisture  
Dew Point 50 °F    
Average Humidity 99    
Maximum Humidity 100    
Minimum Humidity 95    
Precipitation  
Precipitation 1.23 in - - ()
Sea Level Pressure  
Sea Level Pressure 29.29 in    
Wind  
Wind Speed 17 mph (NW)    
Max Wind Speed 36 mph    
Max Gust Speed 54 mph    
Visibility 8 miles    
Events Rain    
Averages and records for this station are not official NWS values.
T = Trace of Precipitation, MM = Missing Value Source: NWS Daily Summary

Daily Weather History Graph

Daily Weather History Graph

Search for Another Location

Airport:

Trip Planner

Search our weather history database for the weather conditions in past years. The results will help you decide how hot, cold, wet, or windy it might be!

Date:

Astronomy

Oct. 29, 2012 Rise Set
Actual Time 7:34 AM EDT 6:13 PM EDT
Civil Twilight 7:07 AM EDT 6:41 PM EDT
Nautical Twilight 6:36 AM EDT 7:12 PM EDT
Astronomical Twilight 6:05 AM EDT 7:43 PM EDT
Moon 6:05 PM EDT (10/29) 7:22 AM EDT (10/29)
Length of Visible Light 11h 33m
Length of Day
10h 38m
Full, 100% of the Moon is Illuminated
Oct 29
Full
Oct 29
Full
Nov 6
Last Quarter
Nov 13
New
Nov 20
First Quarter

Hourly Weather History & Observations

Time (EDT) Temp. Windchill Dew Point Humidity Pressure Visibility Wind Dir Wind Speed Gust Speed Precip Events Conditions
12:15 AM 54.0 °F - 54.0 °F 100% 29.59 in 7.0 mi NNW 10.4 mph 17.3 mph 0.02 in Rain Rain
12:55 AM 54.0 °F - 54.0 °F 100% 29.57 in 10.0 mi NNW 13.8 mph 18.4 mph 0.04 in Rain Light Rain
1:15 AM 53.8 °F - 53.8 °F 100% 29.57 in 10.0 mi NNW 15.0 mph - N/A Rain Rain
1:35 AM 53.6 °F - 53.6 °F 100% 29.56 in 5.0 mi North 12.7 mph - 0.02 in Rain Light Rain
1:55 AM 53.6 °F - 53.6 °F 100% 29.57 in 5.0 mi NNW 13.8 mph 18.4 mph 0.03 in Rain Light Rain
2:15 AM 53.6 °F - 53.6 °F 100% 29.57 in 7.0 mi NNW 10.4 mph - N/A Rain Rain
2:35 AM 53.6 °F - 53.6 °F 100% 29.55 in 10.0 mi NNW 13.8 mph 18.4 mph 0.01 in Rain Light Rain
2:55 AM 53.2 °F - 53.2 °F 100% 29.55 in 10.0 mi NNW 13.8 mph - 0.02 in Rain Light Rain
3:15 AM 53.2 °F - 53.2 °F 100% 29.54 in 10.0 mi NNW 15.0 mph - 0.01 in Rain Light Rain
3:35 AM 53.1 °F - 53.1 °F 100% 29.53 in 7.0 mi NNW 15.0 mph 20.7 mph 0.03 in Rain Light Rain
3:55 AM 52.9 °F - 52.9 °F 100% 29.52 in 7.0 mi NNW 16.1 mph - 0.04 in Rain Light Rain
4:15 AM 52.9 °F - 52.9 °F 100% 29.52 in 10.0 mi NNW 17.3 mph 20.7 mph 0.01 in Rain Light Rain
4:35 AM 52.9 °F - 52.9 °F 100% 29.53 in 10.0 mi NNW 16.1 mph 25.3 mph 0.01 in Rain Light Rain
4:55 AM 52.9 °F - 52.9 °F 100% 29.52 in 10.0 mi NNW 12.7 mph 23.0 mph 0.02 in Rain Light Rain
5:35 AM 52.7 °F - 52.7 °F 100% 29.51 in 10.0 mi NNW 16.1 mph 24.2 mph 0.01 in Rain Light Rain
5:55 AM 52.7 °F - 52.7 °F 100% 29.50 in 10.0 mi NNW 13.8 mph 25.3 mph 0.02 in Rain Rain
6:15 AM 52.7 °F - 52.7 °F 100% 29.49 in 10.0 mi NNW 19.6 mph 27.6 mph 0.01 in Rain Light Rain
6:35 AM 52.5 °F - 52.3 °F 99% 29.48 in 10.0 mi NNW 15.0 mph 21.9 mph 0.01 in Rain Light Rain
6:55 AM 52.2 °F - 52.2 °F 100% 29.47 in 10.0 mi NNW 16.1 mph 25.3 mph 0.02 in Rain Light Rain
7:15 AM 52.2 °F - 52.0 °F 99% 29.47 in 10.0 mi NNW 16.1 mph 24.2 mph N/A Rain Rain
7:55 AM 52.0 °F - 51.8 °F 99% 29.48 in 10.0 mi NNW 15.0 mph 23.0 mph 0.02 in Rain Rain
8:15 AM 51.8 °F - 51.8 °F 100% 29.48 in 10.0 mi NNW 13.8 mph 21.9 mph 0.01 in Rain Rain
8:35 AM 51.8 °F - 51.8 °F 100% 29.47 in 10.0 mi NNW 15.0 mph 21.9 mph 0.03 in Rain Rain
8:55 AM 51.4 °F - 51.4 °F 100% 29.46 in 10.0 mi NNW 16.1 mph 24.2 mph 0.06 in Rain Rain
9:15 AM 51.4 °F - 51.4 °F 100% 29.46 in 10.0 mi NNW 15.0 mph 24.2 mph 0.02 in Rain Light Rain
9:35 AM 51.4 °F - 51.4 °F 100% 29.44 in 10.0 mi NNW 17.3 mph 25.3 mph 0.03 in Rain Light Rain
9:55 AM 51.3 °F - 51.1 °F 99% 29.43 in 10.0 mi NW 17.3 mph 25.3 mph 0.05 in Rain Rain
10:15 AM 51.1 °F - 50.9 °F 99% 29.43 in 10.0 mi NW 16.1 mph 27.6 mph 0.02 in Rain Rain
10:35 AM 50.9 °F - 50.9 °F 100% 29.41 in 10.0 mi NW 17.3 mph 29.9 mph 0.04 in Rain Rain
10:55 AM 50.9 °F - 50.9 °F 100% 29.39 in 10.0 mi NW 20.7 mph 27.6 mph 0.08 in Rain Rain
11:15 AM 50.7 °F - 50.5 °F 99% 29.39 in 10.0 mi NW 16.1 mph 24.2 mph N/A Rain Rain
11:35 AM 50.4 °F - 50.4 °F 100% 29.37 in 7.0 mi NW 15.0 mph 28.8 mph 0.06 in Rain Heavy Rain
11:55 AM 50.0 °F - 50.0 °F 100% 29.35 in 3.0 mi WNW 18.4 mph 24.2 mph 0.18 in Rain Heavy Rain
12:15 PM 49.5 °F - 49.5 °F 100% 29.33 in 7.0 mi WNW 18.4 mph 25.3 mph 0.04 in Rain Rain
12:35 PM 49.5 °F - 49.5 °F 100% 29.31 in 5.0 mi NW 19.6 mph 32.2 mph 0.08 in Rain Heavy Rain
12:55 PM 49.5 °F - 49.5 °F 100% 29.28 in 4.0 mi NW 21.9 mph 31.1 mph 0.13 in Rain Rain
1:15 PM 49.6 °F - 49.6 °F 100% 29.26 in 7.0 mi NW 24.2 mph 32.2 mph 0.01 in Rain Light Rain
1:35 PM 49.6 °F - 49.6 °F 100% 29.26 in 5.0 mi NW 18.4 mph 28.8 mph 0.03 in Rain Rain
1:55 PM 49.6 °F - 49.5 °F 99% 29.23 in 4.0 mi NW 16.1 mph 26.5 mph 0.05 in Rain Rain
2:55 PM 48.7 °F - 48.4 °F 99% 29.16 in 4.0 mi WNW 23.0 mph 35.7 mph 0.12 in Rain Rain
3:15 PM 48.6 °F - 48.4 °F 99% 29.15 in 4.0 mi WNW 19.6 mph 34.5 mph 0.03 in Rain Rain
3:35 PM 48.2 °F - 48.2 °F 100% 29.13 in 4.0 mi WNW 21.9 mph 29.9 mph 0.07 in Rain Rain
3:55 PM 47.8 °F - 47.8 °F 100% 29.11 in 5.0 mi WNW 19.6 mph 31.1 mph 0.09 in Rain Rain
4:15 PM 48.0 °F - 47.7 °F 99% 29.10 in 5.0 mi WNW 25.3 mph 36.8 mph 0.01 in Rain Rain
4:35 PM 47.8 °F - 47.7 °F 99% 29.07 in 4.0 mi WNW 24.2 mph 36.8 mph 0.04 in Rain Rain
4:55 PM 47.8 °F - 47.5 °F 99% 29.05 in 4.0 mi WNW 28.8 mph 38.0 mph 0.08 in Rain Rain
5:15 PM 47.8 °F - 47.7 °F 99% 29.03 in 4.0 mi WNW 27.6 mph 41.4 mph 0.03 in Rain Rain
5:35 PM 48.0 °F - 47.5 °F 98% 29.00 in 4.0 mi WNW 26.5 mph 47.2 mph 0.06 in Rain Rain
6:15 PM 48.2 °F - 47.5 °F 97% 28.96 in 7.0 mi WNW 25.3 mph 43.7 mph 0.01 in Rain Light Rain
6:35 PM 48.6 °F - 47.7 °F 97% 28.94 in 7.0 mi West 33.4 mph 44.9 mph 0.02 in Rain Light Rain
6:55 PM 48.4 °F - 47.7 °F 97% 28.93 in 5.0 mi WNW 27.6 mph 44.9 mph 0.04 in Rain Rain
7:15 PM 48.4 °F - 47.5 °F 97% 28.91 in 7.0 mi WNW 28.8 mph 42.6 mph 0.02 in Rain Rain
7:35 PM 48.6 °F - 47.5 °F 96% 28.90 in 7.0 mi WNW 29.9 mph 44.9 mph 0.02 in Rain Light Rain
7:55 PM 48.7 °F - 47.5 °F 95% 28.88 in 7.0 mi WNW 35.7 mph 44.9 mph 0.03 in Rain Light Rain
8:15 PM 48.2 °F - 47.3 °F 97% 28.85 in 7.0 mi WNW 31.1 mph 46.0 mph N/A Rain Light Rain
8:35 PM 47.8 °F - 46.8 °F 96% 28.83 in 5.0 mi WNW 32.2 mph 50.6 mph 0.02 in Rain Rain
8:55 PM 47.3 °F - 46.4 °F 97% 28.82 in 7.0 mi WNW 33.4 mph 54.1 mph 0.03 in Rain Light Rain
11:35 PM 46.4 °F 38.5 °F 45.5 °F 97% 28.79 in 10.0 mi WNW 21.9 mph 36.8 mph 0.02 in Rain Rain
11:55 PM 46.4 °F 39.8 °F 45.3 °F 96% 28.80 in 10.0 mi West 16.1 mph 31.1 mph 0.02 in Rain Light Rain